Regional Weather Roundup
Issued by NWS

Home | Current Version | Previous Version | Graphics & Text | Print | Product List | Glossary On
Versions: 1 2 3 4 5 6 7 8 9 10 11 12 13 14 15 16 17 18 19 20 21 22 23 24 25 26 27 28 29 30 31 32 33 34 35 36 37 38 39 40 41 42 43 44 45 46 47 48 49 50
000
ASUS43 KMPX 100701
RWRMN
WEATHER ROUNDUP FOR MINNESOTA
NATIONAL WEATHER SERVICE TWIN CITIES/CHANHASSEN MN
200 AM CDT THU JUL 10 2014


NOTE: "FAIR" INDICATES FEW OR NO CLOUDS BELOW 12,000 FEET WITH NO
SIGNIFICANT WEATHER AND/OR OBSTRUCTIONS TO VISIBILITY. N/A MEANS
CURRENT SKY AND/OR WEATHER CONDITIONS ARE NOT AVAILABLE.

MNZ060>063-068>070-100800-
   Twin Cities Metro

CITY           SKY/WX    TMP DP  RH WIND       PRES   REMARKS
TWIN CITIES    CLEAR     64  56  75 SE5       30.02S
ST PAUL        CLEAR     63  58  83 SE5       30.03S
CRYSTAL        CLEAR     61  56  83 CALM      30.01S
BLAINE         CLEAR     64  57  77 SE5       30.02S
LAKEVILLE      CLEAR     55  55 100 CALM      30.03S
EDEN PRAIRIE   CLEAR     63  57  81 SE3       30.01S
SOUTH ST PAUL  CLEAR     63  59  87 CALM      30.03S
LAKE ELMO      FAIR      59  55  88 CALM      30.04S
$$
MNZ001>005-007-008-013>017-022>024-027-028-100800-
   Northwest Minnesota

CITY           SKY/WX    TMP DP  RH WIND       PRES   REMARKS
BEMIDJI        CLEAR     48  46  92 CALM      30.01S
HALLOCK        CLEAR     57  54  88 SE8       29.96S
ROSEAU         CLEAR     54  48  82 S5        29.98F
WARROAD        CLEAR     54  48  82 CALM      29.99S
THIEF RVR FALL CLEAR     54  50  87 CALM      29.99S
CROOKSTON      CLEAR     55  52  88 SE7       29.98F
FOSSTON        CLEAR     52  48  87 CALM      30.01S
DETROIT LAKES  CLEAR     55  52  88 CALM      30.02F
MOORHEAD       CLEAR     63  55  77 SE3       29.99F
PARK RAPIDS    CLEAR     55  53  93 CALM      30.02S
$$
MNZ006-009>011-018-025>026-100800-
   North Central Minnesota

CITY           SKY/WX    TMP DP  RH WIND       PRES   REMARKS
BAUDETTE       CLEAR     54  50  86 E3        30.00S
FLAG ISLAND    CLEAR     61  52  72 NW3       29.97S
INTL FALLS     MOCLDY    48  47  96 CALM      30.00S
LONGVILLE      CLEAR     52  50  93 CALM      30.02S
GRAND RAPIDS   CLOUDY    52  48  87 S3        30.02F
CRANE LAKE     MOCLDY    46  45  93 CALM      30.04S
ORR            PTCLDY    54  48  82 CALM      30.01R
COOK           MOCLDY    48  48 100 CALM      30.03S
$$
MNZ012-019>021-037-100800-
   Northeast Minnesota

CITY           SKY/WX    TMP DP  RH WIND       PRES   REMARKS
DULUTH         PTCLDY    56  49  77 CALM      30.04S
ELY            MOCLDY    46  45  93 CALM      30.04S
HIBBING        FOG       50  48  93 CALM      30.03S VSB 1
EVELETH        CLOUDY    50  48  93 CALM      30.04F
DULUTH HARBOR  CLEAR     55  52  88 N5        30.04S
TWO HARBORS    CLEAR     46  43  87 CALM      30.03S
SILVER BAY     CLEAR     45  45 100 CALM      30.03S
GRAND MARAIS     N/A     44  42  93 CALM      30.03S
G MARAIS ARPRT PTCLDY    43  39  87 CALM      30.07R
$$
MNZ029>031-032-039>041-046>048-054>057-064-100800-
   West Central Minnesota

CITY           SKY/WX    TMP DP  RH WIND       PRES   REMARKS
FERGUS FALLS   CLEAR     61  52  72 E6        30.01S
WHEATON        CLEAR     54  52  94 SE7       30.01F
MORRIS         CLEAR     55  54  94 SE5       30.00F
ALEXANDRIA     CLEAR     58  53  84 CALM      30.04R
ELBOW LAKE     FAIR      63  52  67 SE5       30.01S
WADENA         CLEAR     52  50  93 CALM      30.02S
GLENWOOD       CLEAR     59  52  77 CALM      30.03S
APPLETON       CLEAR     59  55  88 CALM      30.01S
BENSON         CLEAR     57  55  94 CALM      30.02S
ORTONVILLE     CLEAR     61  54  77 SE3       30.01S
MADISON        CLEAR     63  57  82 CALM      30.01S
WILLMAR        FAIR      61  52  72 CALM      30.03S
$$
MNZ033>034-036-042>043-049>051-058-059-100800-
   Central Minnesota

CITY           SKY/WX    TMP DP  RH WIND       PRES   REMARKS
ST CLOUD       CLEAR     59  55  87 E5        30.01S
SAUK CENTRE    FAIR      54  53  95 CALM      30.03S
PAYNESVILLE    CLEAR     50  49  97 CALM      30.03S
AITKIN         CLEAR     54  46  76 CALM      30.01S
PINE RIVER     CLEAR     52  48  87 CALM      30.05S
BRAINERD       CLEAR     57  51  80 CALM      30.03R
STAPLES        CLEAR     54  52  94 CALM      30.02S
LONG PRAIRIE   FAIR      52  50  93 CALM      30.03S
LITTLE FALLS   CLEAR     54  50  87 CALM      30.02S
LITCHFIELD       N/A     57  57 100 CALM      30.03S
BUFFALO        CLEAR     63  55  75 SE5       30.02S
MAPLE LAKE     CLEAR     58  57  97 CALM      30.02S
$$
MNZ037-044-045-052-053-100800-
   East Central Minnesota

CITY           SKY/WX    TMP DP  RH WIND       PRES   REMARKS
PRINCETON      PTCLDY    59  57  94 CALM      30.02S
MORA           CLEAR     54  52  94 CALM      30.04S
CAMBRIDGE      PTCLDY    59  50  72 CALM      30.01S
RUSH CITY      MOCLDY    55  54  94 CALM      30.03S
MOOSE LAKE     PTCLDY    52  50  93 CALM      30.02S FOG
HINCKLEY       FAIR      52  52 100 CALM      30.03S
CLOQUET        CLEAR     55  50  82 CALM      30.04S
MCGREGOR       PTCLDY    52  52 100 CALM      30.03S
$$
MNZ071>073-080-081-089-090-097-098-100800-
   Southwest Minnesota

CITY           SKY/WX    TMP DP  RH WIND       PRES   REMARKS
MONTEVIDEO     CLEAR     61  54  77 S5        30.02S
GRANITE FALLS  CLEAR     60  52  74 CALM      30.03S
CANBY          CLEAR     58  55  90 CALM      30.02F
MARSHALL       CLEAR     61  54  77 MISG      30.01F
REDWOOD FALLS  CLEAR     62  53  72 SE5       30.01F
OLIVIA         CLEAR     59  52  77 CALM      30.01S
PIPESTONE      CLEAR     63  54  72 SE5       30.02F
WINDOM         CLEAR     63  54  72 CALM      30.03F
WORTHINGTON    CLEAR     63  57  82 S6        30.04S
JACKSON        CLEAR     61  54  77 CALM      30.03F
TRACY          CLEAR     64  53  66 CALM      30.03S
SLAYTON        CLEAR     61  55  82 CALM      30.04S
$$
MNZ065>067-074>077-082>085-091>093-100800-
   South Central Minnesota

CITY           SKY/WX    TMP DP  RH WIND       PRES   REMARKS
MANKATO        CLEAR     63  54  72 SE6       30.03S
NEW ULM        CLEAR     59  55  88 CALM      30.02S
ST JAMES       CLEAR     61  55  82 CALM      30.03S
FAIRMONT       CLEAR     61  52  72 S3        30.03S
GLENCOE        CLEAR     62  54  76 CALM      30.02S
FARIBAULT      CLEAR     64  54  68 SE3       30.04S
OWATONNA       CLEAR     61  55  82 SE7       30.04S
WASECA         CLEAR     59  52  77 SE5       30.05S
ALBERT LEA     MOCLDY    63  57  82 CALM      30.04S
$$
MNZ078>079-086>088-094>096-100800-
   Southeast Minnesota

CITY           SKY/WX    TMP DP  RH WIND       PRES   REMARKS
ROCHESTER      CLEAR     61  55  81 S9        30.07R
RED WING       CLEAR     57  55  94 CALM      30.03S
STANTON        CLEAR     59  54  82 CALM      30.02S
DODGE CENTER   PTCLDY    61  57  88 SE7       30.05S
WINONA         CLEAR     59  55  88 CALM      30.05S
AUSTIN         PTCLDY    61  55  82 CALM      30.04S
PRESTON        CLEAR     63  56  77 SE3       30.07S
$$
ABBREVIATIONS USED IN REMARKS
   TC - TEMPERATURES IN CELSIUS
  WCI - WIND CHILL INDEX
   HX - HEAT INDEX
  VSB - VISIBILITY
$$



USA.gov is the U.S. government's official web portal to all federal, state and local government web resources and services.